Weather History for Mount Carmel, IL

Change the Weather History Date:

Monday, February 18, 2013

  Actual Average (KLWV) Record (KLWV)
Temperature  
Mean Temperature 46 °F 36 °F  
Max Temperature 60 °F 45 °F 64 °F (1997)
Min Temperature 32 °F 28 °F -5 °F (1993)
Degree Days  
Heating Degree Days 19 29  
Month to date heating degree days 557  
Since 1 July heating degree days 3408  
Cooling Degree Days 0 0  
Month to date cooling degree days 0  
Year to date cooling degree days 0  
Moisture  
Dew Point 35 °F    
Average Humidity 66    
Maximum Humidity 93    
Minimum Humidity 36    
Precipitation  
Precipitation 0.32 in 0.07 in 1.29 in (2000)
Month to date precipitation 1.37  
Year to date precipitation 3.75  
Sea Level Pressure  
Sea Level Pressure 29.85 in    
Wind  
Wind Speed 16 mph (South)    
Max Wind Speed 31 mph    
Max Gust Speed 40 mph    
Visibility 9 miles    
Events Rain    
T = Trace of Precipitation, MM = Missing Value Source: NWS Daily Summary

Daily Weather History Graph

Daily Weather History Graph

Search for Another Location

Airport:

Trip Planner

Search our weather history database for the weather conditions in past years. The results will help you decide how hot, cold, wet, or windy it might be!

Date:

Astronomy

Feb. 18, 2013 Rise Set
Actual Time 6:37 AM CST 5:32 PM CST
Civil Twilight 6:10 AM CST 5:59 PM CST
Nautical Twilight 5:39 AM CST 6:30 PM CST
Astronomical Twilight 5:08 AM CST 7:01 PM CST
Moon 11:20 AM CST (2/18) 1:15 AM CST (2/18)
Length of Visible Light 11h 48m
Length of Day
10h 54m
First Quarter, 58% of the Moon is Illuminated
Feb 18
First Quarter
Feb 25
Full
Mar 4
Last Quarter
Mar 11
New
Mar 19
First Quarter

Hourly Weather History & Observations

Time (CST) Temp. Windchill Dew Point Humidity Pressure Visibility Wind Dir Wind Speed Gust Speed Precip Events Conditions
12:15 AM 33.8 °F 27.7 °F 24.8 °F 70% 30.07 in 10.0 mi SE 6.9 mph - N/A   Clear
12:55 AM 32.0 °F 24.8 °F 24.8 °F 75% 30.06 in 10.0 mi SE 8.1 mph - N/A   Clear
1:15 AM 35.6 °F 28.0 °F 24.8 °F 65% 30.05 in 10.0 mi SE 10.4 mph - N/A   Clear
1:35 AM 35.6 °F 27.1 °F 23.0 °F 60% 30.04 in 10.0 mi SSE 12.7 mph - N/A   Clear
1:55 AM 35.6 °F 28.0 °F 23.0 °F 60% 30.03 in 10.0 mi SSE 10.4 mph - N/A   Clear
2:15 AM 35.6 °F 26.6 °F 23.0 °F 60% 30.03 in 10.0 mi SSE 13.8 mph - N/A   Clear
2:35 AM 35.6 °F 27.5 °F 23.0 °F 60% 30.02 in 10.0 mi SSE 11.5 mph - N/A   Clear
2:55 AM 35.6 °F 27.5 °F 23.0 °F 60% 30.01 in 10.0 mi SSE 11.5 mph - N/A   Clear
3:15 AM 35.6 °F 28.0 °F 23.0 °F 60% 30.01 in 10.0 mi SSE 10.4 mph - N/A   Clear
3:35 AM 37.4 °F 29.8 °F 23.0 °F 56% 30.00 in 10.0 mi SSE 11.5 mph - N/A   Clear
3:55 AM 37.4 °F 28.9 °F 24.8 °F 60% 30.00 in 10.0 mi SSE 13.8 mph - N/A   Clear
4:15 AM 37.4 °F 29.8 °F 23.0 °F 56% 30.00 in 10.0 mi SSE 11.5 mph - N/A   Clear
4:35 AM 37.4 °F 29.3 °F 24.8 °F 60% 30.00 in 10.0 mi SSE 12.7 mph 16.1 mph N/A   Clear
4:55 AM 37.4 °F 28.9 °F 24.8 °F 60% 29.99 in 10.0 mi SSE 13.8 mph 19.6 mph N/A   Clear
5:15 AM 37.4 °F 29.3 °F 24.8 °F 60% 29.99 in 10.0 mi South 12.7 mph - N/A   Clear
5:35 AM 37.4 °F 29.8 °F 26.6 °F 65% 29.99 in 10.0 mi SSE 11.5 mph - N/A   Clear
5:55 AM 37.4 °F 29.8 °F 26.6 °F 65% 29.98 in 10.0 mi South 11.5 mph 17.3 mph N/A   Clear
6:15 AM 37.4 °F 30.3 °F 26.6 °F 65% 29.98 in 10.0 mi South 10.4 mph - N/A   Clear
6:35 AM 37.4 °F 29.8 °F 26.6 °F 65% 29.97 in 10.0 mi South 11.5 mph - N/A   Clear
6:55 AM 37.4 °F 29.3 °F 26.6 °F 65% 29.96 in 10.0 mi South 12.7 mph - N/A   Clear
7:15 AM 37.4 °F 29.3 °F 28.4 °F 70% 29.97 in 10.0 mi South 12.7 mph - N/A   Clear
7:35 AM 39.2 °F 32.0 °F 28.4 °F 65% 29.97 in 10.0 mi South 11.5 mph - N/A   Clear
7:55 AM 41.0 °F 33.9 °F 30.2 °F 65% 29.97 in 10.0 mi South 12.7 mph 18.4 mph N/A   Clear
8:15 AM 41.0 °F 33.9 °F 30.2 °F 65% 29.96 in 10.0 mi South 12.7 mph - N/A   Clear
8:35 AM 42.8 °F 34.8 °F 32.0 °F 66% 29.96 in 10.0 mi South 17.3 mph - N/A   Clear
8:55 AM 46.4 °F 39.8 °F 33.8 °F 62% 29.95 in 10.0 mi South 16.1 mph - N/A   Clear
9:15 AM 48.2 °F - 35.6 °F 62% 29.94 in 10.0 mi South 17.3 mph 24.2 mph N/A   Clear
9:35 AM 50.0 °F - 35.6 °F 58% 29.93 in 10.0 mi South 20.7 mph 24.2 mph N/A   Clear
9:55 AM 51.8 °F - 37.4 °F 58% 29.93 in 10.0 mi South 17.3 mph 28.8 mph N/A   Clear
10:15 AM 51.8 °F - 39.2 °F 62% 29.92 in 10.0 mi South 18.4 mph 24.2 mph N/A   Clear
10:35 AM 53.6 °F - 41.0 °F 62% 29.92 in 10.0 mi South 23.0 mph 29.9 mph N/A   Clear
10:55 AM 55.4 °F - 41.0 °F 58% 29.91 in 10.0 mi South 20.7 mph 28.8 mph N/A   Clear
11:15 AM 55.4 °F - 41.0 °F 58% 29.90 in 10.0 mi South 26.5 mph 34.5 mph N/A   Clear
11:35 AM 55.4 °F - 41.0 °F 58% 29.89 in 10.0 mi South 25.3 mph 32.2 mph N/A   Clear
11:55 AM 57.2 °F - 41.0 °F 55% 29.88 in 10.0 mi South 20.7 mph 31.1 mph N/A   Mostly Cloudy
12:15 PM 59.0 °F - 41.0 °F 51% 29.87 in 10.0 mi South 23.0 mph 27.6 mph N/A   Overcast
12:35 PM 60.8 °F - 41.0 °F 48% 29.85 in 10.0 mi SSW 26.5 mph 32.2 mph N/A   Mostly Cloudy
12:55 PM 60.8 °F - 39.2 °F 45% 29.84 in 10.0 mi SSW 25.3 mph 38.0 mph N/A   Mostly Cloudy
1:15 PM 60.8 °F - 37.4 °F 42% 29.83 in 10.0 mi SSW 21.9 mph 32.2 mph N/A   Mostly Cloudy
1:35 PM 60.8 °F - 35.6 °F 39% 29.80 in 10.0 mi South 26.5 mph 34.5 mph N/A   Mostly Cloudy
1:55 PM 60.8 °F - 33.8 °F 36% 29.79 in 10.0 mi SSW 28.8 mph 36.8 mph N/A   Mostly Cloudy
2:15 PM 59.0 °F - 32.0 °F 36% 29.80 in 10.0 mi South 24.2 mph 40.3 mph N/A   Overcast
2:35 PM 59.0 °F - 32.0 °F 36% 29.80 in 10.0 mi SSW 20.7 mph 31.1 mph N/A   Overcast
2:55 PM 55.4 °F - 37.4 °F 51% 29.78 in 10.0 mi SSW 31.1 mph 40.3 mph N/A Rain Light Rain
3:15 PM 57.2 °F - 35.6 °F 44% 29.79 in 10.0 mi SSW 16.1 mph 21.9 mph N/A   Overcast
3:35 PM 55.4 °F - 35.6 °F 47% 29.78 in 10.0 mi SSW 25.3 mph 38.0 mph N/A Rain Light Rain
3:55 PM 51.8 °F - 41.0 °F 67% 29.79 in 7.0 mi SSW 17.3 mph 27.6 mph 0.01 in Rain Rain
4:15 PM 51.8 °F - 42.8 °F 71% 29.76 in 7.0 mi South 18.4 mph 29.9 mph 0.02 in Rain Light Rain
4:35 PM 50.0 °F - 42.8 °F 76% 29.76 in 10.0 mi South 15.0 mph - 0.03 in Rain Rain
4:55 PM 51.8 °F - 42.8 °F 71% 29.74 in 10.0 mi South 23.0 mph 28.8 mph 0.04 in Rain Light Rain
5:35 PM 51.8 °F - 42.8 °F 71% 29.71 in 10.0 mi South 26.5 mph 34.5 mph N/A   Overcast
5:55 PM 51.8 °F - 42.8 °F 71% 29.70 in 10.0 mi South 27.6 mph 40.3 mph N/A Rain Light Rain
6:15 PM 50.0 °F - 44.6 °F 82% 29.70 in 7.0 mi South 21.9 mph 32.2 mph 0.02 in Rain Light Rain
6:35 PM 50.0 °F - 44.6 °F 82% 29.69 in 5.0 mi South 26.5 mph 32.2 mph 0.03 in Rain Light Rain
6:55 PM 50.0 °F - 44.6 °F 82% 29.67 in 7.0 mi South 27.6 mph 36.8 mph 0.05 in Rain Light Rain
7:15 PM 50.0 °F - 44.6 °F 82% 29.67 in 5.0 mi South 27.6 mph 36.8 mph 0.02 in Rain Rain
7:35 PM 50.0 °F - 44.6 °F 82% 29.65 in 10.0 mi South 23.0 mph 33.4 mph 0.04 in Rain Light Rain
7:55 PM 50.0 °F - 44.6 °F 82% 29.64 in 10.0 mi SSE 26.5 mph 32.2 mph 0.05 in   Overcast
8:15 PM 50.0 °F - 44.6 °F 82% 29.66 in 5.0 mi South 20.7 mph 27.6 mph 0.01 in Rain Rain
8:35 PM 50.0 °F - 46.4 °F 87% 29.66 in 5.0 mi South 23.0 mph 26.5 mph 0.04 in Rain Rain
8:55 PM 50.0 °F - 46.4 °F 87% 29.64 in 5.0 mi South 24.2 mph 32.2 mph 0.06 in Rain Light Rain
9:15 PM 50.0 °F - 46.4 °F 87% 29.59 in 10.0 mi South 31.1 mph 38.0 mph 0.01 in Rain Light Rain
9:35 PM 50.0 °F - 46.4 °F 87% 29.61 in 10.0 mi South 27.6 mph 36.8 mph 0.03 in   Overcast
9:55 PM 50.0 °F - 46.4 °F 87% 29.63 in 7.0 mi South 24.2 mph - 0.05 in Rain Light Rain
10:15 PM 50.0 °F - 46.4 °F 87% 29.64 in 4.0 mi SSW 25.3 mph 32.2 mph 0.02 in Rain Heavy Rain
10:35 PM 50.0 °F - 46.4 °F 87% 29.66 in 4.0 mi SW 24.2 mph 32.2 mph 0.03 in Rain Rain
10:55 PM 42.8 °F 33.1 °F 41.0 °F 93% 29.72 in 5.0 mi West 25.3 mph 32.2 mph 0.04 in Rain Rain
11:15 PM 41.0 °F 30.2 °F 37.4 °F 87% 29.74 in 10.0 mi WNW 27.6 mph 33.4 mph 0.01 in   Light Drizzle
11:35 PM 41.0 °F 30.9 °F 35.6 °F 81% 29.77 in 10.0 mi WNW 24.2 mph 33.4 mph 0.02 in   Overcast
11:55 PM 41.0 °F 31.4 °F 35.6 °F 81% 29.79 in 10.0 mi WNW 21.9 mph 34.5 mph 0.02 in   Overcast